CZ-6A DEB, 54279

Orbit data source: Space-Track

CZ-6A DEB, 54279 is space debris in SSO originally from a launch on Fri, 11 Nov 2022 UTC launched from the Taiyaun Space Center, China (TSC). Debris objects in space refer to the collection of defunct objects orbiting the Earth. Examples of debris include non-operational satellites, rocket bodies, and fragments generated from explosions, collisions, or faulty payload assembly.

Loading next visibility...
Identifier
54279, 2022-151W
Orbit
SSO
Country
Flag of CNCN / PRC
Related business
Manufacturer
SAST
Mission
Spacecraft
Bus & Motor
Unknown
Mass
Unknown
Launch date (UTC)
2022-11-11 (4 years ago)
Launch vehicle
Unknown
Launch site
Taiyaun Space Center, China (TSC)
Object type
Payload
Rocket body
Debris
Shape & HBR
Unknown shape, 0.1 m
Radar Cross Section
Medium (>0.1 m² and <1 m²)

Expand to show TLE details & history
Last TLE update: 2 days ago

TLE from 2 days ago
0 CZ-6A DEB
1 54279U 22151W   26171.00465694  .00000489  00000-0  18017-3 0  9990
2 54279  98.6129 185.4297 0139356  62.3794 299.1459 14.31653806187516
Epoch: 2026-06-20T00:06Z
TLE epoch observation values (Epoch: 2026-06-20T00:06:42.359Z)
Latitude
-0.00004°
Longitude
-84.47229°
Altitude
741.579 km
Speed
7.509 km/s
True Right ascension
12h 21m 43s
True Declination
0° 00' 00"
Sunlit
Object was in daylight at epoch
Visualization orbit readout
Latitude
Unknown
Longitude
Unknown
Altitude
Unknown
Speed
Unknown
Apparent Right ascension
Unknown
Apparent Declination
Unknown
Sunlit
N/A
Visualization observer readout
Local Sidereal Time
21:52:17
Azimuth
Unknown
Elevation
Unknown
Doppler factor
Unknown
Orbital elements
Apogee altitude
883.145 km
Perigee altitude
683.546 km
Semi-major axis
7,161.483 km
Eccentricity
0.01394
Inclination
98.6129°
RAAN
185.4297°
Arg. of periapsis
62.3794°
True anomaly
297.73941°
Mean anomaly
299.1459°
Eccentric anomaly
298.44383°
Mean motion
3.58128 °/min
Orbital period
100.52 mins
BSTAR
0.00018017
Loading maneuver chart data...
Computing Atmospheric mass density...
Loading historical data...
Loading historical data...
Loading historical data...
Loading historical data...
Loading historical data...
Loading historical data...
Loading historical data...

Documentation

Showing up to 5 results
|